カタログに戻る

EKRAN 18

運用中通信GEO
NORAD 19090·PAYLOAD·🇷🇺 Russia

打ち上げ May 6, 1988 から Baikonur Cosmodrome

Loading…

TLE

最新Source: Space-Track

元期: Sep 13, 2026, 22:29 UTC

1 19090U 88036A   26256.93688281 -.00000136  00000-0  00000-0 0  9991
2 19090  13.2768 332.0783 0008554 104.9817 270.3161  0.95180696117863

AllMySatでEKRAN 18をリアルタイム追跡

Download on the App Store